Inquirer Daily News

Weather

Get conditions and forecasts for any City, State, ZIP code or Country:  
Northeast Philadelphia, PA
on Friday, February 1, 2013

Friday
Previous Day Next Day
Daily Summary
 ActualAverage (KTTN)Record (KTTN)
Temperature
Mean Temperature °F 32°F  
Max Temperature 30°F 40°F 67°F (2012)
Min Temperature 21°F 24°F -3°F (1920)
Degree Days
Heating Degree Days 40 33  
Month to date heating degree days 33  
Since 1 July heating degree days 2979  
Cooling Degree Days 0 0  
Month to date cooling degree days 0  
Year to date cooling degree days 0  
Moisture
Dew Point 9°F   
Average Humidity 48    
Maximum Humidity 80    
Minimum Humidity 33    
Precipitation
Precipitation 0.00 in 0.07 in 2.01 in (1915)
Month to date precipitation 0.07  
Year to date precipitation 3.23  
Wind
Wind Speed 13 mph   
Max Wind Speed 23 mph   
Max Gust Speed 34 mph   
Visibility 9 miles   
Events Snow   

Key: T is trace of precipitation, MM is missing value
Source: NWS Daily Summary
Time(EST)TemperatureDew PointHumidity Pressure Visibility Wind DirectionWind SpeedGust SpeedPrecipitationEvents Conditions
12:54 AM 28.9°F 9.0°F 43% 29.88 in 10.0 miles WSW 15.0 mph - N/A   Partly Cloudy
1:54 AM 28.0°F 9.0°F 45% 29.86 in 10.0 miles SW 8.1 mph 16.1 mph N/A   Clear
2:54 AM 28.4°F 10.4°F 47% 29.87 in 10.0 miles SW 9.2 mph - N/A   Clear
3:54 AM 28.4°F 10.4°F 47% 29.87 in 10.0 miles WSW 10.4 mph - N/A   Clear
4:54 AM 28.4°F 12.2°F 51% 29.86 in 10.0 miles WSW 9.2 mph - N/A   Overcast
5:54 AM 30.0°F 12.0°F 47% 29.87 in 10.0 miles West 4.6 mph - N/A   Overcast
6:54 AM 30.0°F 12.9°F 49% 29.87 in 10.0 miles Calm Calm - N/A   Overcast
7:54 AM 30.2°F 14.0°F 51% 29.89 in 10.0 miles West 9.2 mph - N/A   Overcast
8:54 AM 30.0°F 14.0°F 51% 29.91 in 10.0 miles West 12.7 mph - N/A   Overcast
9:52 AM 26.6°F 17.6°F 69% 29.94 in 1.5 miles NW 21.9 mph 29.9 mph 0.00 in Snow Light Snow
9:54 AM 26.1°F 19.0°F 75% 29.95 in 0.8 miles NNW 23.0 mph 29.9 mph 0.00 in Snow Light Snow
10:13 AM 24.8°F 19.4°F 80% 29.95 in 2.0 miles NW 11.5 mph - 0.00 in Snow Light Snow
10:21 AM 26.6°F 17.6°F 69% 29.95 in 6.0 miles WNW 10.4 mph - N/A Snow Light Snow
10:32 AM 26.6°F 15.8°F 64% 29.95 in 10.0 miles NW 10.4 mph - 0.00 in   Overcast
10:54 AM 28.4°F 8.6°F 43% 29.95 in 10.0 miles NW 20.7 mph 28.8 mph N/A   Overcast
11:54 AM 28.9°F 6.1°F 38% 29.97 in 10.0 miles NW 19.6 mph 26.5 mph N/A   Mostly Cloudy
12:54 PM 30.0°F 7.0°F 38% 29.99 in 10.0 miles NW 12.7 mph 21.9 mph N/A   Overcast
1:54 PM 30.0°F 6.1°F 36% 30.01 in 10.0 miles WNW 13.8 mph 27.6 mph N/A   Scattered Clouds
2:54 PM 28.4°F 3.2°F 34% 30.03 in 10.0 miles WNW 20.7 mph 29.9 mph N/A   Mostly Cloudy
3:54 PM 28.9°F 3.0°F 33% 30.08 in 10.0 miles WNW 16.1 mph 34.5 mph N/A   Overcast
4:54 PM 28.0°F 3.9°F 36% 30.12 in 10.0 miles WNW 15.0 mph 29.9 mph N/A   Scattered Clouds
5:54 PM 26.1°F 5.0°F 41% 30.15 in 10.0 miles WNW 16.1 mph 25.3 mph N/A   Clear
6:54 PM 25.0°F 3.9°F 41% 30.19 in 10.0 miles WNW 15.0 mph 27.6 mph N/A   Clear
7:54 PM 25.0°F 3.9°F 41% 30.22 in 10.0 miles WNW 13.8 mph 25.3 mph N/A   Clear
8:54 PM 24.1°F 3.9°F 42% 30.25 in 10.0 miles WNW 16.1 mph 21.9 mph N/A   Clear
9:54 PM 23.0°F 3.9°F 44% 30.28 in 10.0 miles WNW 15.0 mph 23.0 mph N/A   Clear
10:54 PM 21.9°F 3.9°F 46% 30.30 in 10.0 miles WNW 11.5 mph - N/A   Clear
11:54 PM 21.0°F 3.9°F 48% 30.31 in 10.0 miles WNW 10.4 mph 20.7 mph N/A   Clear
Astronomy
Sunrise:07:08 AM (EST) Moon Rise:11:24 PM (EST)2/1
Sunset:05:19 PM (EST) Moon Set:09:40 AM (EST)2/1
Moon Phase
Feb. 01 Feb. 03 Feb. 10 Feb. 17 Feb. 25

Copyright © 2014 The Weather Underground, Inc.